DW9918 Weather Reports


Display with metric or nautical units.
time (UTC)temp
F
wind
direction
speed
MPH
gust
MPH
rain 1hr
in
rain 24hr
in
rain mn
in
humidity
%
barometer
mb
20260503051504 49 273 1.0 2.0 0.00 0.00 0.00 81 1019.7
20260503050035 47 238 0.0 3.0 0.00 0.00 0.00 82 1019.6
20260503044526 46 227 2.0 3.0 0.00 0.00 0.00 82 1019.7
20260503043017 46 245 2.0 3.0 0.00 0.00 0.00 84 1019.6
20260503041528 45 226 2.0 3.0 0.00 0.00 0.00 84 1019.7
20260503040033 46 238 1.0 2.0 0.00 0.00 0.00 84 1019.6
20260503034504 0 0.0 0.0 0.00 0.00 0.00 1019.5
20260503033005 46 114 0.0 0.0 0.00 0.00 0.00 83 1019.4
20260503031524 47 105 0.0 0.0 0.00 0.00 0.00 83 1019.5
20260503030035 47 111 0.0 0.0 0.00 0.00 0.00 82 1019.6
20260503024518 48 118 0.0 0.0 0.00 0.00 0.00 81 1019.6
20260503023035 48 0.0 0.0 0.00 0.00 0.00 1019.7
20260503021532 48 0.0 1.0 0.00 0.00 0.00 81 1019.8
20260503020033 48 0.0 1.0 0.00 0.00 0.00 80 1019.9
20260503014531 0 0.0 0.0 0.00 0.00 0.00 1019.8
20260503013040 0 0.0 0.0 0.00 0.00 0.00 1019.9
20260503011536 0 0.0 0.0 0.00 0.00 0.00 1020.0
20260503010033 0 0.0 0.0 0.00 0.00 0.00 1020.0
20260503004536 0 0.0 0.0 0.00 0.00 0.00 1020.0
20260503003043 0 0.0 0.0 0.00 0.00 0.00 1020.1
20260503001540 0 0.0 0.0 0.00 0.00 0.00 1020.3
20260503000041 52 203 0.0 0.0 0.00 0.00 0.00 75 1020.3
20260502234536 52 150 0.0 1.0 0.00 0.00 0.00 75 1020.4
20260502233030 52 167 0.0 1.0 0.00 0.00 0.00 73 1020.5
20260502231504 53 193 0.0 4.0 0.00 0.00 0.00 72 1020.7
20260502230004 53 179 1.0 4.0 0.00 0.00 0.00 72 1020.9
20260502224503 54 158 0.0 1.0 0.00 0.00 0.00 71 1020.9
20260502223005 55 160 0.0 2.0 0.00 0.00 0.00 69 1021.0
20260502221503 54 144 0.0 1.0 0.00 0.00 0.00 70 1021.1
20260502220006 55 153 0.0 2.0 0.00 0.00 0.00 70 1021.1
20260502214508 55 192 0.0 1.0 0.00 0.00 0.00 71 1021.1
20260502213008 57 166 0.0 1.0 0.00 0.00 0.00 67 1021.1
20260502211508 59 143 0.0 1.0 0.00 0.00 0.00 62 1021.1
20260502210010 59 127 0.0 1.0 0.00 0.00 0.00 62 1021.2
20260502204505 59 146 1.0 2.0 0.00 0.00 0.00 62 1021.1
20260502203008 58 148 0.0 2.0 0.00 0.00 0.00 63 1021.3
20260502201510 58 105 2.0 3.0 0.00 0.00 0.00 64 1021.3
20260502200013 61 124 1.0 2.0 0.00 0.00 0.00 58 1021.3
20260502194527 61 143 0.0 1.0 0.00 0.00 0.00 57 1021.3
20260502193009 62 148 0.0 1.0 0.00 0.00 0.00 56 1021.2
20260502191509 62 146 1.0 3.0 0.00 0.00 0.00 56 1021.1
20260502190014 63 94 2.0 3.0 0.00 0.00 0.00 55 1021.1
20260502184511 63 160 0.0 2.0 0.00 0.00 0.00 54 1021.1
20260502183016 64 101 1.0 4.0 0.00 0.00 0.00 52 1021.0
20260502181526 65 110 1.0 3.0 0.00 0.00 0.00 51 1021.0
20260502163020 70 110 4.0 7.0 0.00 0.00 0.00 41 1021.4
20260502161512 70 108 5.0 8.0 0.00 0.00 0.00 42 1021.4
20260502151533 71 94 9.0 11.0 0.00 0.00 0.00 42 1021.9
20260502123022 72 252 3.0 7.0 0.00 0.00 0.00 37 1023.8
20260502121505 72 310 4.0 8.0 0.00 0.00 0.00 37 1024.0
20260502114503 72 245 4.0 8.0 0.00 0.00 0.00 37 1024.4
20260502113018 73 311 2.0 6.0 0.00 0.00 0.00 37 1024.6
20260502111527 72 311 0.0 7.0 0.00 0.00 0.00 38 1024.9
20260502110018 72 131 0.0 7.0 0.00 0.00 0.00 38 1025.1
20260502104509 72 225 1.0 5.0 0.00 0.00 0.00 39 1025.3
20260502103006 70 35 1.0 8.0 0.00 0.00 0.00 39 1025.5
20260502101526 69 250 3.0 6.0 0.00 0.00 0.00 40 1025.6
20260502091512 68 293 3.0 5.0 0.00 0.00 0.00 44 1026.1
20260502071508 58 296 6.0 9.0 0.00 0.00 0.00 59 1026.6
20260502070028 57 296 6.0 10.0 0.00 0.00 0.00 61 1026.6
20260502064523 55 304 5.0 7.0 0.00 0.00 0.00 68 1026.6
20260502063021 53 279 2.0 5.0 0.00 0.00 0.00 73 1026.6
20260502061535 51 283 2.0 5.0 0.00 0.00 0.00 73 1026.6
20260502060020 50 258 3.0 5.0 0.00 0.00 0.00 75 1026.6
20260502054511 48 215 2.0 4.0 0.00 0.00 0.00 75 1026.6
20260502053028 47 231 0.0 3.0 0.00 0.00 0.00 79 1026.6